Time,TemperatureF,DewpointF,PressureIn,WindDirection,WindDirectionDegrees,WindSpeedMPH,WindSpeedGustMPH,Humidity,HourlyPrecipIn,Conditions,Clouds,dailyrainin,SoftwareType,DateUTC
2013-03-29 00:01:00,59.0,48.5,30.18,South,180,0.0,7.0,68,0.00,,---,0.00,VWS V13.01,2013-03-29 05:01:00,
2013-03-29 00:06:00,58.9,48.4,30.17,South,180,0.0,0.0,68,0.00,,---,0.00,VWS V13.01,2013-03-29 05:06:00,
2013-03-29 00:11:00,58.9,48.4,30.17,South,179,0.0,3.0,68,0.00,,---,0.00,VWS V13.01,2013-03-29 05:11:00,
2013-03-29 00:16:00,59.0,48.5,30.17,South,179,0.0,4.0,68,0.00,,---,0.00,VWS V13.01,2013-03-29 05:16:00,
2013-03-29 00:21:00,59.0,48.5,30.17,South,179,0.0,4.0,68,0.00,,---,0.00,VWS V13.01,2013-03-29 05:21:00,
2013-03-29 00:26:00,59.0,48.5,30.17,South,178,0.0,5.0,68,0.00,,---,0.00,VWS V13.01,2013-03-29 05:26:00,
2013-03-29 00:32:00,59.0,48.5,30.17,South,178,0.0,5.0,68,0.00,,---,0.00,VWS V13.01,2013-03-29 05:32:00,
2013-03-29 00:37:00,59.0,48.9,30.17,South,178,0.0,0.0,69,0.00,,---,0.00,VWS V13.01,2013-03-29 05:37:00,
2013-03-29 00:42:00,59.0,48.9,30.17,South,178,0.0,0.0,69,0.00,,---,0.00,VWS V13.01,2013-03-29 05:42:00,
2013-03-29 00:47:00,58.8,48.7,30.17,South,178,0.0,1.0,69,0.00,,---,0.00,VWS V13.01,2013-03-29 05:47:00,
2013-03-29 00:52:00,58.9,49.2,30.17,South,178,0.0,1.0,70,0.00,,---,0.00,VWS V13.01,2013-03-29 05:52:00,
2013-03-29 00:57:00,59.0,48.9,30.17,South,183,0.0,3.0,69,0.00,,---,0.00,VWS V13.01,2013-03-29 05:57:00,
2013-03-29 01:02:00,59.0,48.9,30.17,South,180,5.0,6.0,69,0.00,,---,0.00,VWS V13.01,2013-03-29 06:02:00,
2013-03-29 01:07:00,59.1,48.6,30.16,South,184,0.0,6.0,68,0.00,,---,0.00,VWS V13.01,2013-03-29 06:07:00,
2013-03-29 01:12:00,59.2,48.7,30.17,South,185,0.0,6.0,68,0.00,,---,0.00,VWS V13.01,2013-03-29 06:12:00,
2013-03-29 01:17:00,59.4,48.8,30.16,SSW,207,0.0,6.0,68,0.00,,---,0.00,VWS V13.01,2013-03-29 06:17:00,
2013-03-29 01:22:00,59.5,48.9,30.17,South,186,0.0,6.0,68,0.00,,---,0.00,VWS V13.01,2013-03-29 06:22:00,
2013-03-29 01:27:00,59.6,48.6,30.17,South,187,0.0,6.0,67,0.00,,---,0.00,VWS V13.01,2013-03-29 06:27:00,
2013-03-29 01:33:00,59.5,48.9,30.17,South,185,0.0,6.0,68,0.00,,---,0.00,VWS V13.01,2013-03-29 06:33:00,
2013-03-29 01:38:00,59.0,48.5,30.17,South,185,0.0,0.0,68,0.00,,---,0.00,VWS V13.01,2013-03-29 06:38:00,
2013-03-29 01:43:00,58.7,48.6,30.16,South,185,0.0,1.0,69,0.00,,---,0.00,VWS V13.01,2013-03-29 06:43:00,
2013-03-29 01:48:00,58.3,48.6,30.17,South,185,0.0,1.0,70,0.00,,---,0.00,VWS V13.01,2013-03-29 06:48:00,
2013-03-29 01:53:00,58.2,48.5,30.16,South,185,0.0,1.0,70,0.00,,---,0.00,VWS V13.01,2013-03-29 06:53:00,
2013-03-29 01:58:00,58.2,48.5,30.16,SSE,159,0.0,5.0,70,0.00,,---,0.00,VWS V13.01,2013-03-29 06:58:00,
2013-03-29 02:03:00,58.3,48.6,30.16,SSE,160,0.0,5.0,70,0.00,,---,0.00,VWS V13.01,2013-03-29 07:03:00,
2013-03-29 02:08:00,58.2,48.5,30.16,SSE,160,0.0,0.0,70,0.00,,---,0.00,VWS V13.01,2013-03-29 07:08:00,
2013-03-29 02:13:00,58.2,48.5,30.16,SSE,163,0.0,3.0,70,0.00,,---,0.00,VWS V13.01,2013-03-29 07:13:00,
2013-03-29 02:18:00,58.1,48.4,30.15,SSE,164,0.0,3.0,70,0.00,,---,0.00,VWS V13.01,2013-03-29 07:18:00,
2013-03-29 02:23:00,58.1,48.4,30.15,SSE,165,0.0,3.0,70,0.00,,---,0.00,VWS V13.01,2013-03-29 07:23:00,
2013-03-29 02:28:00,58.0,48.3,30.15,SSE,166,0.0,3.0,70,0.00,,---,0.00,VWS V13.01,2013-03-29 07:28:00,
2013-03-29 02:33:00,57.9,48.2,30.15,SSE,165,0.0,3.0,70,0.00,,---,0.00,VWS V13.01,2013-03-29 07:33:00,
2013-03-29 02:38:00,57.5,48.2,30.15,SSE,165,0.0,0.0,71,0.00,,---,0.00,VWS V13.01,2013-03-29 07:38:00,
2013-03-29 02:43:00,57.2,48.3,30.15,SSE,165,0.0,1.0,72,0.00,,---,0.00,VWS V13.01,2013-03-29 07:43:00,
2013-03-29 02:49:00,57.2,48.3,30.15,SSE,165,0.0,2.0,72,0.00,,---,0.00,VWS V13.01,2013-03-29 07:49:00,
2013-03-29 02:54:00,57.1,48.2,30.15,SSE,165,0.0,2.0,72,0.00,,---,0.00,VWS V13.01,2013-03-29 07:54:00,
2013-03-29 02:59:00,57.1,48.2,30.15,South,191,0.0,7.0,72,0.00,,---,0.00,VWS V13.01,2013-03-29 07:59:00,
2013-03-29 03:04:00,57.1,48.2,30.14,South,191,0.0,7.0,72,0.00,,---,0.00,VWS V13.01,2013-03-29 08:04:00,
2013-03-29 03:09:00,57.1,47.8,30.14,South,190,0.0,5.0,71,0.00,,---,0.00,VWS V13.01,2013-03-29 08:09:00,
2013-03-29 03:14:00,57.1,47.8,30.14,South,178,3.0,5.0,71,0.00,,---,0.00,VWS V13.01,2013-03-29 08:14:00,
2013-03-29 03:19:00,57.1,48.2,30.14,South,178,0.0,5.0,72,0.00,,---,0.00,VWS V13.01,2013-03-29 08:19:00,
2013-03-29 03:24:00,57.0,48.1,30.14,South,178,0.0,5.0,72,0.00,,---,0.00,VWS V13.01,2013-03-29 08:24:00,
2013-03-29 03:29:00,57.1,47.8,30.14,South,178,0.0,5.0,71,0.00,,---,0.00,VWS V13.01,2013-03-29 08:29:00,
2013-03-29 03:34:00,57.2,47.9,30.14,South,185,0.0,5.0,71,0.00,,---,0.00,VWS V13.01,2013-03-29 08:34:00,
2013-03-29 03:39:00,57.1,47.8,30.14,South,184,0.0,2.0,71,0.00,,---,0.00,VWS V13.01,2013-03-29 08:39:00,
2013-03-29 03:44:00,57.0,47.7,30.14,South,178,0.0,2.0,71,0.00,,---,0.00,VWS V13.01,2013-03-29 08:44:00,
2013-03-29 03:49:00,56.8,47.1,30.13,South,178,0.0,2.0,70,0.00,,---,0.00,VWS V13.01,2013-03-29 08:49:00,
2013-03-29 03:54:00,56.6,46.9,30.13,South,178,0.0,2.0,70,0.00,,---,0.00,VWS V13.01,2013-03-29 08:54:00,
2013-03-29 03:59:00,56.3,47.0,30.14,South,178,0.0,2.0,71,0.00,,---,0.00,VWS V13.01,2013-03-29 08:59:00,
2013-03-29 04:04:00,56.1,46.8,30.14,South,178,0.0,2.0,71,0.00,,---,0.00,VWS V13.01,2013-03-29 09:04:00,
2013-03-29 04:09:00,55.8,46.5,30.13,South,178,0.0,0.0,71,0.00,,---,0.00,VWS V13.01,2013-03-29 09:09:00,
2013-03-29 04:14:00,55.5,46.6,30.13,South,178,0.0,0.0,72,0.00,,---,0.00,VWS V13.01,2013-03-29 09:14:00,
2013-03-29 04:19:00,55.2,47.1,30.13,SE,145,0.0,3.0,74,0.00,,---,0.00,VWS V13.01,2013-03-29 09:19:00,
2013-03-29 04:25:00,55.2,47.1,30.13,SE,145,0.0,3.0,74,0.00,,---,0.00,VWS V13.01,2013-03-29 09:25:00,
2013-03-29 04:30:00,55.2,47.1,30.13,SE,145,0.0,3.0,74,0.00,,---,0.00,VWS V13.01,2013-03-29 09:30:00,
2013-03-29 04:35:00,55.1,47.0,30.13,SE,145,0.0,3.0,74,0.00,,---,0.00,VWS V13.01,2013-03-29 09:35:00,
2013-03-29 04:40:00,55.1,47.0,30.13,SE,145,0.0,1.0,74,0.00,,---,0.00,VWS V13.01,2013-03-29 09:40:00,
2013-03-29 04:45:00,55.2,47.1,30.13,SE,145,0.0,1.0,74,0.00,,---,0.00,VWS V13.01,2013-03-29 09:45:00,
2013-03-29 04:50:00,55.2,46.7,30.13,SE,145,0.0,1.0,73,0.00,,---,0.00,VWS V13.01,2013-03-29 09:50:00,
2013-03-29 04:55:00,55.5,46.6,30.13,SE,145,0.0,1.0,72,0.00,,---,0.00,VWS V13.01,2013-03-29 09:55:00,
2013-03-29 05:00:00,55.6,46.7,30.13,SE,145,0.0,2.0,72,0.00,,---,0.00,VWS V13.01,2013-03-29 10:00:00,
2013-03-29 05:05:00,55.5,46.6,30.13,SE,145,0.0,3.0,72,0.00,,---,0.00,VWS V13.01,2013-03-29 10:05:00,
2013-03-29 05:10:00,55.6,46.7,30.13,SE,145,0.0,2.0,72,0.00,,---,0.00,VWS V13.01,2013-03-29 10:10:00,
2013-03-29 05:15:00,55.3,47.2,30.13,SE,145,0.0,2.0,74,0.00,,---,0.00,VWS V13.01,2013-03-29 10:15:00,
2013-03-29 05:20:00,54.9,47.8,30.13,SE,145,0.0,2.0,77,0.00,,---,0.00,VWS V13.01,2013-03-29 10:20:00,
2013-03-29 05:25:00,54.4,48.0,30.13,SE,145,0.0,2.0,79,0.00,,---,0.00,VWS V13.01,2013-03-29 10:25:00,
2013-03-29 05:30:00,54.1,48.1,30.13,SE,145,0.0,2.0,80,0.00,,---,0.00,VWS V13.01,2013-03-29 10:30:00,
2013-03-29 05:36:00,54.0,48.3,30.13,SE,145,0.0,2.0,81,0.00,,---,0.00,VWS V13.01,2013-03-29 10:36:00,
2013-03-29 05:41:00,54.1,47.7,30.13,SE,145,0.0,0.0,79,0.00,,---,0.00,VWS V13.01,2013-03-29 10:41:00,
2013-03-29 05:46:00,54.6,46.5,30.13,SE,145,0.0,1.0,74,0.00,,---,0.00,VWS V13.01,2013-03-29 10:46:00,
2013-03-29 05:51:00,55.1,47.0,30.13,SE,145,0.0,1.0,74,0.00,,---,0.00,VWS V13.01,2013-03-29 10:51:00,
2013-03-29 05:56:00,55.2,47.4,30.13,SE,145,2.0,3.0,75,0.00,,---,0.00,VWS V13.01,2013-03-29 10:56:00,
2013-03-29 06:01:00,55.2,46.7,30.12,East,101,0.0,5.0,73,0.00,,---,0.00,VWS V13.01,2013-03-29 11:01:00,
2013-03-29 06:06:00,55.0,46.5,30.12,East,101,0.0,5.0,73,0.00,,---,0.00,VWS V13.01,2013-03-29 11:06:00,
2013-03-29 06:11:00,54.9,47.1,30.13,ESE,102,0.0,2.0,75,0.00,,---,0.00,VWS V13.01,2013-03-29 11:11:00,
2013-03-29 06:16:00,54.8,47.0,30.13,ESE,102,0.0,3.0,75,0.00,,---,0.00,VWS V13.01,2013-03-29 11:16:00,
2013-03-29 06:21:00,54.7,46.9,30.13,ESE,102,0.0,3.0,75,0.00,,---,0.00,VWS V13.01,2013-03-29 11:21:00,
2013-03-29 06:27:00,54.7,47.3,30.13,ESE,102,0.0,3.0,76,0.00,,---,0.00,VWS V13.01,2013-03-29 11:27:00,
2013-03-29 06:32:00,54.6,46.8,30.14,ESE,102,0.0,3.0,75,0.00,,---,0.00,VWS V13.01,2013-03-29 11:32:00,
2013-03-29 06:37:00,54.6,46.8,30.14,ESE,102,0.0,0.0,75,0.00,,---,0.00,VWS V13.01,2013-03-29 11:37:00,
2013-03-29 06:42:00,54.6,46.8,30.15,East,101,2.0,4.0,75,0.00,,---,0.00,VWS V13.01,2013-03-29 11:42:00,
2013-03-29 06:47:00,54.6,47.2,30.15,NE,44,3.0,9.0,76,0.00,,---,0.00,VWS V13.01,2013-03-29 11:47:00,
2013-03-29 06:52:00,54.3,46.9,30.15,NE,38,5.0,9.0,76,0.00,,---,0.00,VWS V13.01,2013-03-29 11:52:00,
2013-03-29 06:57:00,53.9,46.9,30.16,NE,38,7.0,10.0,77,0.00,,---,0.00,VWS V13.01,2013-03-29 11:57:00,
2013-03-29 07:02:00,53.6,46.6,30.17,NE,52,4.0,10.0,77,0.00,,---,0.00,VWS V13.01,2013-03-29 12:02:00,
2013-03-29 07:07:00,53.3,46.6,30.17,ENE,76,4.0,6.0,78,0.01,,---,0.01,VWS V13.01,2013-03-29 12:07:00,
2013-03-29 07:13:00,53.2,47.2,30.16,ESE,113,0.0,6.0,80,0.02,,---,0.02,VWS V13.01,2013-03-29 12:13:00,
2013-03-29 07:18:00,53.0,47.3,30.15,ESE,117,0.0,6.0,81,0.04,,---,0.04,VWS V13.01,2013-03-29 12:18:00,
2013-03-29 07:23:00,52.9,47.6,30.15,ESE,118,0.0,6.0,82,0.05,,---,0.05,VWS V13.01,2013-03-29 12:23:00,
2013-03-29 07:28:00,52.8,47.8,30.15,SSW,200,0.0,6.0,83,0.06,,---,0.06,VWS V13.01,2013-03-29 12:28:00,
2013-03-29 07:33:00,52.7,47.7,30.16,SSW,200,0.0,6.0,83,0.06,,---,0.06,VWS V13.01,2013-03-29 12:33:00,
2013-03-29 07:38:00,52.7,48.0,30.16,SSW,200,0.0,0.0,84,0.06,,---,0.06,VWS V13.01,2013-03-29 12:38:00,
2013-03-29 07:43:00,52.6,47.9,30.16,SSW,199,0.0,0.0,84,0.06,,---,0.06,VWS V13.01,2013-03-29 12:43:00,
2013-03-29 07:48:00,52.7,48.3,30.17,SSW,200,0.0,0.0,85,0.06,,---,0.06,VWS V13.01,2013-03-29 12:48:00,
2013-03-29 07:53:00,52.7,48.3,30.16,SSW,200,0.0,0.0,85,0.06,,---,0.06,VWS V13.01,2013-03-29 12:53:00,
2013-03-29 07:58:00,52.7,48.6,30.16,SSW,200,0.0,0.0,86,0.06,,---,0.07,VWS V13.01,2013-03-29 12:58:00,
2013-03-29 08:03:00,52.6,48.5,30.16,SSW,200,0.0,0.0,86,0.07,,---,0.07,VWS V13.01,2013-03-29 13:03:00,
2013-03-29 08:08:00,52.6,48.5,30.16,SSW,199,0.0,0.0,86,0.07,,---,0.07,VWS V13.01,2013-03-29 13:08:00,
2013-03-29 08:13:00,52.6,48.8,30.16,SSW,199,0.0,0.0,87,0.07,,---,0.07,VWS V13.01,2013-03-29 13:13:00,
2013-03-29 08:18:00,52.6,48.8,30.16,SSW,199,0.0,0.0,87,0.07,,---,0.07,VWS V13.01,2013-03-29 13:18:00,
2013-03-29 08:23:00,52.6,48.8,30.16,SSW,199,0.0,0.0,87,0.07,,---,0.07,VWS V13.01,2013-03-29 13:23:00,
2013-03-29 08:28:00,52.5,48.8,30.16,SSW,200,0.0,0.0,87,0.07,,---,0.07,VWS V13.01,2013-03-29 13:28:00,
2013-03-29 08:33:00,52.5,48.8,30.16,SSW,200,0.0,0.0,87,0.07,,---,0.07,VWS V13.01,2013-03-29 13:33:00,
2013-03-29 08:38:00,52.5,49.0,30.17,NE,42,4.0,4.0,88,0.01,,---,0.07,VWS V13.01,2013-03-29 13:38:00,
2013-03-29 08:44:00,52.2,48.8,30.17,NE,36,2.0,8.0,88,0.01,,---,0.07,VWS V13.01,2013-03-29 13:44:00,
2013-03-29 08:49:00,51.8,48.4,30.18,NE,53,4.0,8.0,88,0.01,,---,0.07,VWS V13.01,2013-03-29 13:49:00,
2013-03-29 08:54:00,51.7,48.3,30.17,NE,51,0.0,8.0,88,0.01,,---,0.07,VWS V13.01,2013-03-29 13:54:00,
2013-03-29 08:59:00,51.6,48.2,30.17,NE,52,0.0,8.0,88,0.02,,---,0.08,VWS V13.01,2013-03-29 13:59:00,
2013-03-29 09:04:00,51.6,48.5,30.17,NE,52,0.0,8.0,89,0.02,,---,0.08,VWS V13.01,2013-03-29 14:04:00,
2013-03-29 09:09:00,51.7,48.6,30.17,NE,52,1.0,3.0,89,0.01,,---,0.08,VWS V13.01,2013-03-29 14:09:00,
2013-03-29 09:14:00,51.8,48.7,30.17,SSW,208,1.0,3.0,89,0.01,,---,0.08,VWS V13.01,2013-03-29 14:14:00,
2013-03-29 09:19:00,52.0,49.2,30.17,East,101,0.0,4.0,90,0.01,,---,0.08,VWS V13.01,2013-03-29 14:19:00,
2013-03-29 09:24:00,52.0,49.2,30.18,NE,42,6.0,7.0,90,0.01,,---,0.08,VWS V13.01,2013-03-29 14:24:00,
2013-03-29 09:29:00,51.8,49.0,30.19,ENE,57,6.0,10.0,90,0.01,,---,0.08,VWS V13.01,2013-03-29 14:29:00,
2013-03-29 09:34:00,51.5,48.7,30.22,NNW,342,9.0,10.0,90,0.01,,---,0.08,VWS V13.01,2013-03-29 14:34:00,
2013-03-29 09:39:00,51.2,48.4,30.24,NNW,346,0.0,15.0,90,0.01,,---,0.08,VWS V13.01,2013-03-29 14:39:00,
2013-03-29 09:44:00,51.0,48.2,30.20,ESE,121,3.0,15.0,90,0.20,,---,0.30,VWS V13.01,2013-03-29 14:44:00,
2013-03-29 09:50:00,51.2,48.7,30.19,ESE,116,2.0,15.0,91,0.31,,---,0.39,VWS V13.01,2013-03-29 14:50:00,
2013-03-29 09:55:00,51.2,48.7,30.19,ESE,110,3.0,15.0,91,0.34,,---,0.41,VWS V13.01,2013-03-29 14:55:00,
2013-03-29 10:00:00,51.3,48.8,30.18,SE,131,2.0,15.0,91,0.36,,---,0.43,VWS V13.01,2013-03-29 15:00:00,
2013-03-29 10:05:00,51.4,48.9,30.18,South,182,3.0,15.0,91,0.36,,---,0.43,VWS V13.01,2013-03-29 15:05:00,
2013-03-29 10:10:00,51.6,49.4,30.19,SSW,202,0.0,6.0,92,0.35,,---,0.43,VWS V13.01,2013-03-29 15:10:00,
2013-03-29 10:15:00,51.9,49.7,30.18,South,188,0.0,6.0,92,0.36,,---,0.44,VWS V13.01,2013-03-29 15:15:00,
2013-03-29 10:20:00,52.1,49.8,30.18,South,188,0.0,6.0,92,0.37,,---,0.45,VWS V13.01,2013-03-29 15:20:00,
2013-03-29 10:25:00,52.3,50.0,30.21,NNW,344,0.0,6.0,92,0.38,,---,0.46,VWS V13.01,2013-03-29 15:25:00,
2013-03-29 10:30:00,52.3,50.0,30.21,NNW,348,0.0,6.0,92,0.38,,---,0.46,VWS V13.01,2013-03-29 15:30:00,
2013-03-29 10:35:00,52.3,50.0,30.22,NNW,348,0.0,6.0,92,0.38,,---,0.46,VWS V13.01,2013-03-29 15:35:00,
2013-03-29 10:40:00,52.2,50.0,30.22,NE,42,7.0,7.0,92,0.38,,---,0.46,VWS V13.01,2013-03-29 15:40:00,
2013-03-29 10:45:00,52.1,49.8,30.22,NE,37,3.0,7.0,92,0.39,,---,0.47,VWS V13.01,2013-03-29 15:45:00,
2013-03-29 10:50:00,52.0,49.8,30.22,NNE,32,4.0,8.0,92,0.40,,---,0.48,VWS V13.01,2013-03-29 15:50:00,
2013-03-29 10:55:00,51.8,49.5,30.22,NE,34,3.0,8.0,92,0.40,,---,0.48,VWS V13.01,2013-03-29 15:55:00,
2013-03-29 11:00:00,51.7,49.8,30.22,NE,52,3.0,8.0,93,0.40,,---,0.48,VWS V13.01,2013-03-29 16:00:00,
2013-03-29 11:05:00,51.8,49.8,30.21,NNE,32,3.0,8.0,93,0.40,,---,0.48,VWS V13.01,2013-03-29 16:05:00,
2013-03-29 11:10:00,51.9,49.9,30.21,ENE,65,0.0,6.0,93,0.05,,---,0.48,VWS V13.01,2013-03-29 16:10:00,
2013-03-29 11:15:00,52.0,50.0,30.21,ENE,61,5.0,7.0,93,0.05,,---,0.48,VWS V13.01,2013-03-29 16:15:00,
2013-03-29 11:20:00,52.2,50.2,30.22,ENE,69,5.0,7.0,93,0.06,,---,0.49,VWS V13.01,2013-03-29 16:20:00,
2013-03-29 11:25:00,52.8,51.1,30.21,NE,52,7.0,9.0,94,0.06,,---,0.49,VWS V13.01,2013-03-29 16:25:00,
2013-03-29 11:30:00,52.7,51.0,30.22,East,80,6.0,9.0,94,0.06,,---,0.49,VWS V13.01,2013-03-29 16:30:00,
2013-03-29 11:36:00,52.6,50.9,30.21,SE,126,0.0,9.0,94,0.06,,---,0.49,VWS V13.01,2013-03-29 16:36:00,
2013-03-29 11:41:00,53.1,51.4,30.21,East,98,2.0,4.0,94,0.03,,---,0.49,VWS V13.01,2013-03-29 16:41:00,
2013-03-29 11:46:00,53.3,51.6,30.20,ESE,102,0.0,5.0,94,0.03,,---,0.49,VWS V13.01,2013-03-29 16:46:00,
2013-03-29 11:51:00,53.2,51.5,30.20,SSE,149,0.0,6.0,94,0.03,,---,0.49,VWS V13.01,2013-03-29 16:51:00,
2013-03-29 11:56:00,53.8,52.1,30.20,SSE,148,0.0,6.0,94,0.03,,---,0.49,VWS V13.01,2013-03-29 16:56:00,
2013-03-29 12:01:00,53.9,52.2,30.20,ESE,123,0.0,7.0,94,0.03,,---,0.49,VWS V13.01,2013-03-29 17:01:00,
2013-03-29 12:06:00,53.8,52.1,30.21,ESE,123,0.0,0.0,94,0.03,,---,0.49,VWS V13.01,2013-03-29 17:06:00,
2013-03-29 12:12:00,54.0,52.3,30.21,ESE,123,2.0,3.0,94,0.01,,---,0.49,VWS V13.01,2013-03-29 17:12:00,
2013-03-29 12:17:00,53.9,52.2,30.20,ESE,122,0.0,4.0,94,0.01,,---,0.49,VWS V13.01,2013-03-29 17:17:00,
2013-03-29 12:22:00,53.6,51.6,30.21,ESE,123,3.0,4.0,93,0.01,,---,0.49,VWS V13.01,2013-03-29 17:22:00,
2013-03-29 12:27:00,53.6,51.9,30.20,ESE,123,4.0,5.0,94,0.01,,---,0.49,VWS V13.01,2013-03-29 17:27:00,
2013-03-29 12:33:00,53.6,51.9,30.20,ESE,123,0.0,5.0,94,0.01,,---,0.49,VWS V13.01,2013-03-29 17:33:00,
2013-03-29 12:38:00,53.7,52.0,30.20,ESE,123,0.0,0.0,94,0.00,,---,0.49,VWS V13.01,2013-03-29 17:38:00,
2013-03-29 12:43:00,54.0,52.3,30.20,ESE,123,0.0,0.0,94,0.00,,---,0.49,VWS V13.01,2013-03-29 17:43:00,
2013-03-29 12:48:00,54.4,52.7,30.20,ESE,122,0.0,0.0,94,0.00,,---,0.49,VWS V13.01,2013-03-29 17:48:00,
2013-03-29 12:53:00,54.6,52.9,30.20,ESE,123,0.0,3.0,94,0.00,,---,0.49,VWS V13.01,2013-03-29 17:53:00,
2013-03-29 12:58:00,54.5,52.5,30.19,ESE,123,0.0,3.0,93,0.00,,---,0.49,VWS V13.01,2013-03-29 17:58:00,
2013-03-29 13:03:00,54.9,53.2,30.19,ESE,123,0.0,3.0,94,0.00,,---,0.49,VWS V13.01,2013-03-29 18:03:00,
2013-03-29 13:08:00,55.7,54.0,30.19,South,190,4.0,5.0,94,0.00,,---,0.49,VWS V13.01,2013-03-29 18:08:00,
2013-03-29 13:13:00,55.5,53.5,30.19,South,183,0.0,6.0,93,0.00,,---,0.49,VWS V13.01,2013-03-29 18:13:00,
2013-03-29 13:18:00,55.5,53.5,30.19,South,184,0.0,6.0,93,0.00,,---,0.49,VWS V13.01,2013-03-29 18:18:00,
2013-03-29 13:23:00,56.1,54.1,30.19,South,184,0.0,6.0,93,0.00,,---,0.49,VWS V13.01,2013-03-29 18:23:00,
2013-03-29 13:28:00,57.3,55.3,30.18,SE,141,0.0,6.0,93,0.00,,---,0.49,VWS V13.01,2013-03-29 18:28:00,
2013-03-29 13:33:00,57.2,54.6,30.18,SE,144,1.0,6.0,91,0.00,,---,0.49,VWS V13.01,2013-03-29 18:33:00,
2013-03-29 13:38:00,57.8,55.2,30.18,SE,144,1.0,4.0,91,0.00,,---,0.49,VWS V13.01,2013-03-29 18:38:00,
2013-03-29 13:43:00,58.4,55.8,30.18,SE,144,0.0,4.0,91,0.00,,---,0.49,VWS V13.01,2013-03-29 18:43:00,
2013-03-29 13:48:00,58.5,55.6,30.17,NNE,33,0.0,4.0,90,0.00,,---,0.49,VWS V13.01,2013-03-29 18:48:00,
2013-03-29 13:53:00,59.0,55.8,30.17,NE,53,0.0,4.0,89,0.00,,---,0.49,VWS V13.01,2013-03-29 18:53:00,
2013-03-29 13:59:00,59.0,55.5,30.17,NE,53,1.0,4.0,88,0.00,,---,0.49,VWS V13.01,2013-03-29 18:59:00,
2013-03-29 14:04:00,59.3,55.8,30.16,ENE,59,2.0,4.0,88,0.00,,---,0.49,VWS V13.01,2013-03-29 19:04:00,
2013-03-29 14:09:00,59.6,55.4,30.16,South,171,2.0,4.0,86,0.00,,---,0.49,VWS V13.01,2013-03-29 19:09:00,
2013-03-29 14:14:00,59.7,55.8,30.17,SW,235,2.0,6.0,87,0.00,,---,0.49,VWS V13.01,2013-03-29 19:14:00,
2013-03-29 14:19:00,59.1,54.6,30.17,SW,222,2.0,10.0,85,0.00,,---,0.49,VWS V13.01,2013-03-29 19:19:00,
2013-03-29 14:24:00,59.0,54.8,30.17,SSW,199,0.0,10.0,86,0.00,,---,0.49,VWS V13.01,2013-03-29 19:24:00,
2013-03-29 14:29:00,59.0,54.8,30.16,SW,233,0.0,10.0,86,0.00,,---,0.49,VWS V13.01,2013-03-29 19:29:00,
2013-03-29 14:34:00,59.5,55.0,30.17,SSW,209,0.0,10.0,85,0.00,,---,0.49,VWS V13.01,2013-03-29 19:34:00,
2013-03-29 14:39:00,59.0,54.5,30.16,SW,227,0.0,9.0,85,0.00,,---,0.49,VWS V13.01,2013-03-29 19:39:00,
2013-03-29 14:44:00,59.0,54.5,30.16,South,171,0.0,9.0,85,0.00,,---,0.49,VWS V13.01,2013-03-29 19:44:00,
2013-03-29 14:49:00,59.1,54.6,30.16,SSW,198,0.0,9.0,85,0.00,,---,0.49,VWS V13.01,2013-03-29 19:49:00,
2013-03-29 14:54:00,59.4,54.9,30.16,SSW,201,0.0,9.0,85,0.00,,---,0.49,VWS V13.01,2013-03-29 19:54:00,
2013-03-29 14:59:00,59.6,55.4,30.16,SSW,193,0.0,9.0,86,0.00,,---,0.49,VWS V13.01,2013-03-29 19:59:00,
2013-03-29 15:04:00,59.6,54.8,30.16,South,169,0.0,9.0,84,0.00,,---,0.49,VWS V13.01,2013-03-29 20:04:00,
2013-03-29 15:10:00,59.4,54.2,30.16,SSW,195,0.0,6.0,83,0.00,,---,0.49,VWS V13.01,2013-03-29 20:10:00,
2013-03-29 15:15:00,59.0,54.5,30.16,SSW,193,0.0,6.0,85,0.00,,---,0.49,VWS V13.01,2013-03-29 20:15:00,
2013-03-29 15:20:00,59.3,54.5,30.15,South,186,3.0,7.0,84,0.00,,---,0.49,VWS V13.01,2013-03-29 20:20:00,
2013-03-29 15:25:00,59.0,54.8,30.15,ESE,115,0.0,7.0,86,0.00,,---,0.49,VWS V13.01,2013-03-29 20:25:00,
2013-03-29 15:30:00,59.4,54.9,30.15,South,188,3.0,7.0,85,0.00,,---,0.49,VWS V13.01,2013-03-29 20:30:00,
2013-03-29 15:35:00,59.7,55.2,30.15,South,173,0.0,7.0,85,0.00,,---,0.49,VWS V13.01,2013-03-29 20:35:00,
2013-03-29 15:40:00,59.9,55.4,30.14,ESE,117,0.0,7.0,85,0.00,,---,0.49,VWS V13.01,2013-03-29 20:40:00,
2013-03-29 15:45:00,60.2,55.3,30.14,SSE,165,0.0,7.0,84,0.00,,---,0.49,VWS V13.01,2013-03-29 20:45:00,
2013-03-29 15:50:00,60.0,55.5,30.15,South,188,0.0,7.0,85,0.00,,---,0.49,VWS V13.01,2013-03-29 20:50:00,
2013-03-29 15:55:00,60.5,55.7,30.15,South,187,0.0,7.0,84,0.00,,---,0.49,VWS V13.01,2013-03-29 20:55:00,
2013-03-29 16:00:00,60.4,55.5,30.15,SSW,196,0.0,8.0,84,0.00,,---,0.49,VWS V13.01,2013-03-29 21:00:00,
2013-03-29 16:05:00,60.3,55.8,30.14,SSW,205,0.0,8.0,85,0.00,,---,0.49,VWS V13.01,2013-03-29 21:05:00,
2013-03-29 16:11:00,60.2,55.3,30.14,SSE,164,2.0,6.0,84,0.00,,---,0.49,VWS V13.01,2013-03-29 21:11:00,
2013-03-29 16:16:00,59.8,55.0,30.14,South,184,0.0,7.0,84,0.00,,---,0.49,VWS V13.01,2013-03-29 21:16:00,
2013-03-29 16:21:00,59.6,54.8,30.14,South,183,0.0,7.0,84,0.00,,---,0.49,VWS V13.01,2013-03-29 21:21:00,
2013-03-29 16:26:00,59.4,54.9,30.14,South,183,0.0,7.0,85,0.00,,---,0.49,VWS V13.01,2013-03-29 21:26:00,
2013-03-29 16:31:00,59.1,54.6,30.14,South,184,0.0,7.0,85,0.00,,---,0.49,VWS V13.01,2013-03-29 21:31:00,
2013-03-29 16:36:00,59.7,55.2,30.13,South,186,2.0,3.0,85,0.00,,---,0.49,VWS V13.01,2013-03-29 21:36:00,
2013-03-29 16:41:00,59.8,55.3,30.14,SW,222,0.0,3.0,85,0.00,,---,0.49,VWS V13.01,2013-03-29 21:41:00,
2013-03-29 16:46:00,59.7,55.2,30.14,SW,221,0.0,3.0,85,0.00,,---,0.49,VWS V13.01,2013-03-29 21:46:00,
2013-03-29 16:51:00,59.5,55.3,30.14,SW,221,0.0,3.0,86,0.00,,---,0.49,VWS V13.01,2013-03-29 21:51:00,
2013-03-29 16:56:00,59.4,55.2,30.14,SW,221,0.0,3.0,86,0.00,,---,0.49,VWS V13.01,2013-03-29 21:56:00,
2013-03-29 17:02:00,59.5,55.3,30.14,SSE,157,0.0,3.0,86,0.00,,---,0.49,VWS V13.01,2013-03-29 22:02:00,
2013-03-29 17:07:00,59.5,55.3,30.14,SSE,157,0.0,0.0,86,0.00,,---,0.49,VWS V13.01,2013-03-29 22:07:00,
2013-03-29 17:12:00,59.6,55.4,30.13,SSE,158,0.0,3.0,86,0.00,,---,0.49,VWS V13.01,2013-03-29 22:12:00,
2013-03-29 17:17:00,59.6,55.4,30.13,SSE,158,0.0,3.0,86,0.00,,---,0.49,VWS V13.01,2013-03-29 22:17:00,
2013-03-29 17:22:00,59.8,55.6,30.13,SSE,151,0.0,3.0,86,0.00,,---,0.49,VWS V13.01,2013-03-29 22:22:00,
2013-03-29 17:27:00,59.5,55.3,30.13,SSE,151,0.0,3.0,86,0.00,,---,0.49,VWS V13.01,2013-03-29 22:27:00,
2013-03-29 17:32:00,59.6,55.4,30.13,SSE,150,0.0,3.0,86,0.00,,---,0.49,VWS V13.01,2013-03-29 22:32:00,
2013-03-29 17:37:00,59.5,55.3,30.14,SSE,151,0.0,0.0,86,0.00,,---,0.49,VWS V13.01,2013-03-29 22:37:00,
2013-03-29 17:42:00,59.5,55.3,30.14,SSE,151,0.0,0.0,86,0.00,,---,0.49,VWS V13.01,2013-03-29 22:42:00,
2013-03-29 17:47:00,59.3,55.1,30.14,SSE,151,0.0,0.0,86,0.00,,---,0.49,VWS V13.01,2013-03-29 22:47:00,
2013-03-29 17:52:00,59.3,55.4,30.14,SSE,151,0.0,0.0,87,0.00,,---,0.49,VWS V13.01,2013-03-29 22:52:00,
2013-03-29 17:57:00,59.4,55.5,30.14,SSE,151,0.0,0.0,87,0.00,,---,0.49,VWS V13.01,2013-03-29 22:57:00,
2013-03-29 18:02:00,59.4,55.5,30.13,SSE,151,0.0,2.0,87,0.00,,---,0.49,VWS V13.01,2013-03-29 23:02:00,
2013-03-29 18:07:00,59.3,55.4,30.14,SSE,150,0.0,3.0,87,0.00,,---,0.49,VWS V13.01,2013-03-29 23:07:00,
2013-03-29 18:12:00,59.2,55.3,30.13,ENE,73,2.0,5.0,87,0.00,,---,0.49,VWS V13.01,2013-03-29 23:12:00,
2013-03-29 18:17:00,59.1,55.2,30.13,East,101,0.0,5.0,87,0.00,,---,0.49,VWS V13.01,2013-03-29 23:17:00,
2013-03-29 18:22:00,59.2,55.3,30.13,East,79,1.0,5.0,87,0.00,,---,0.49,VWS V13.01,2013-03-29 23:22:00,
2013-03-29 18:28:00,59.2,55.3,30.13,ENE,61,2.0,6.0,87,0.00,,---,0.49,VWS V13.01,2013-03-29 23:28:00,
2013-03-29 18:33:00,59.1,54.9,30.13,East,92,0.0,6.0,86,0.00,,---,0.49,VWS V13.01,2013-03-29 23:33:00,
2013-03-29 18:38:00,59.1,54.9,30.13,East,92,0.0,3.0,86,0.00,,---,0.49,VWS V13.01,2013-03-29 23:38:00,
2013-03-29 18:43:00,59.1,54.9,30.13,East,92,0.0,3.0,86,0.00,,---,0.49,VWS V13.01,2013-03-29 23:43:00,
2013-03-29 18:48:00,59.0,54.8,30.13,East,92,0.0,3.0,86,0.00,,---,0.49,VWS V13.01,2013-03-29 23:48:00,
2013-03-29 18:53:00,59.0,54.8,30.13,East,92,0.0,3.0,86,0.00,,---,0.49,VWS V13.01,2013-03-29 23:53:00,
2013-03-29 18:58:00,59.0,54.8,30.12,East,92,0.0,4.0,86,0.00,,---,0.49,VWS V13.01,2013-03-29 23:58:00,
2013-03-29 19:03:00,59.0,54.8,30.12,East,92,0.0,4.0,86,0.00,,---,0.49,VWS V13.01,2013-03-30 00:03:00,
2013-03-29 19:08:00,59.0,54.8,30.13,East,92,0.0,0.0,86,0.00,,---,0.49,VWS V13.01,2013-03-30 00:08:00,
2013-03-29 19:13:00,59.0,54.8,30.13,East,92,0.0,2.0,86,0.00,,---,0.49,VWS V13.01,2013-03-30 00:13:00,
2013-03-29 19:18:00,59.0,54.8,30.13,East,92,0.0,2.0,86,0.00,,---,0.49,VWS V13.01,2013-03-30 00:18:00,
2013-03-29 19:23:00,59.0,54.8,30.13,East,92,0.0,2.0,86,0.00,,---,0.49,VWS V13.01,2013-03-30 00:23:00,
2013-03-29 19:28:00,59.0,55.1,30.14,East,92,0.0,2.0,87,0.00,,---,0.49,VWS V13.01,2013-03-30 00:28:00,
2013-03-29 19:33:00,59.0,55.1,30.14,East,92,0.0,2.0,87,0.00,,---,0.49,VWS V13.01,2013-03-30 00:33:00,
2013-03-29 19:38:00,59.0,55.1,30.14,East,92,0.0,0.0,87,0.00,,---,0.49,VWS V13.01,2013-03-30 00:38:00,
2013-03-29 19:43:00,59.0,55.1,30.14,East,92,0.0,0.0,87,0.00,,---,0.49,VWS V13.01,2013-03-30 00:43:00,
2013-03-29 19:48:00,59.0,55.1,30.14,East,92,0.0,0.0,87,0.01,,---,0.50,VWS V13.01,2013-03-30 00:48:00,
2013-03-29 19:53:00,59.0,55.1,30.13,East,92,0.0,0.0,87,0.01,,---,0.50,VWS V13.01,2013-03-30 00:53:00,
2013-03-29 19:59:00,58.9,55.4,30.13,East,92,0.0,4.0,88,0.01,,---,0.50,VWS V13.01,2013-03-30 00:59:00,
2013-03-29 20:04:00,58.7,55.2,30.13,East,92,0.0,4.0,88,0.01,,---,0.50,VWS V13.01,2013-03-30 01:04:00,
2013-03-29 20:09:00,58.6,55.1,30.13,East,92,0.0,5.0,88,0.01,,---,0.50,VWS V13.01,2013-03-30 01:09:00,
2013-03-29 20:14:00,58.5,55.0,30.14,East,92,0.0,5.0,88,0.01,,---,0.50,VWS V13.01,2013-03-30 01:14:00,
2013-03-29 20:19:00,58.4,54.9,30.13,SSE,147,2.0,5.0,88,0.01,,---,0.50,VWS V13.01,2013-03-30 01:19:00,
2013-03-29 20:24:00,58.2,55.0,30.14,SE,146,0.0,5.0,89,0.01,,---,0.50,VWS V13.01,2013-03-30 01:24:00,
2013-03-29 20:29:00,58.1,54.9,30.14,SE,134,0.0,5.0,89,0.01,,---,0.50,VWS V13.01,2013-03-30 01:29:00,
2013-03-29 20:36:00,58.0,54.8,30.15,SSE,163,0.0,5.0,89,0.01,,---,0.50,VWS V13.01,2013-03-30 01:36:00,
2013-03-29 21:06:00,57.6,54.7,30.15,SSE,163,0.0,3.0,90,0.01,,---,0.50,VWS V13.01,2013-03-30 02:06:00,
2013-03-29 21:32:00,57.2,54.6,30.15,ESE,106,0.0,6.0,91,0.00,,---,0.50,VWS V13.01,2013-03-30 02:32:00,
2013-03-29 21:37:00,57.1,54.5,30.15,East,98,4.0,4.0,91,0.00,,---,0.50,VWS V13.01,2013-03-30 02:37:00,
2013-03-29 21:42:00,57.1,54.5,30.15,East,98,0.0,6.0,91,0.01,,---,0.51,VWS V13.01,2013-03-30 02:42:00,
2013-03-29 21:47:00,57.0,54.4,30.16,East,98,3.0,6.0,91,0.01,,---,0.51,VWS V13.01,2013-03-30 02:47:00,
2013-03-29 21:52:00,57.0,54.4,30.16,East,98,4.0,6.0,91,0.01,,---,0.51,VWS V13.01,2013-03-30 02:52:00,
2013-03-29 21:57:00,56.9,54.3,30.16,East,98,0.0,6.0,91,0.01,,---,0.51,VWS V13.01,2013-03-30 02:57:00,
2013-03-29 22:02:00,56.9,54.3,30.16,East,98,1.0,6.0,91,0.01,,---,0.51,VWS V13.01,2013-03-30 03:02:00,
2013-03-29 22:07:00,56.9,54.6,30.16,East,98,0.0,4.0,92,0.01,,---,0.51,VWS V13.01,2013-03-30 03:07:00,
2013-03-29 22:12:00,56.9,54.6,30.16,East,98,0.0,5.0,92,0.01,,---,0.51,VWS V13.01,2013-03-30 03:12:00,
2013-03-29 22:17:00,56.9,54.6,30.16,East,98,0.0,5.0,92,0.01,,---,0.51,VWS V13.01,2013-03-30 03:17:00,
2013-03-29 22:23:00,56.9,54.6,30.16,East,98,2.0,5.0,92,0.01,,---,0.51,VWS V13.01,2013-03-30 03:23:00,
2013-03-29 22:28:00,56.8,54.5,30.16,East,98,0.0,5.0,92,0.01,,---,0.51,VWS V13.01,2013-03-30 03:28:00,
2013-03-29 22:33:00,56.8,54.5,30.16,East,98,0.0,5.0,92,0.01,,---,0.51,VWS V13.01,2013-03-30 03:33:00,
2013-03-29 22:38:00,56.8,54.5,30.16,East,98,0.0,6.0,92,0.01,,---,0.51,VWS V13.01,2013-03-30 03:38:00,
2013-03-29 22:43:00,56.8,54.5,30.16,East,98,0.0,6.0,92,0.01,,---,0.51,VWS V13.01,2013-03-30 03:43:00,
2013-03-29 22:48:00,56.8,54.5,30.16,East,98,0.0,6.0,92,0.01,,---,0.51,VWS V13.01,2013-03-30 03:48:00,
2013-03-29 22:53:00,56.8,54.5,30.16,ESE,103,0.0,6.0,92,0.01,,---,0.51,VWS V13.01,2013-03-30 03:53:00,
2013-03-29 22:58:00,56.8,54.5,30.16,ESE,104,3.0,6.0,92,0.01,,---,0.51,VWS V13.01,2013-03-30 03:58:00,
2013-03-29 23:00:00,56.8,54.5,30.16,ESE,104,0.0,6.0,92,0.01,,---,0.51,VWS V13.01,2013-03-30 04:00:00,
2013-03-29 23:02:00,56.8,54.5,30.16,ESE,102,3.0,6.0,92,0.01,,---,0.51,VWS V13.01,2013-03-30 04:02:00,
2013-03-29 23:07:00,56.8,54.5,30.16,ESE,102,0.0,0.0,92,0.00,,---,0.51,VWS V13.01,2013-03-30 04:07:00,
2013-03-29 23:12:00,56.8,54.5,30.16,East,98,0.0,5.0,92,0.00,,---,0.51,VWS V13.01,2013-03-30 04:12:00,
2013-03-29 23:17:00,56.8,54.5,30.16,East,99,4.0,5.0,92,0.00,,---,0.51,VWS V13.01,2013-03-30 04:17:00,
2013-03-29 23:22:00,56.8,54.5,30.16,East,98,0.0,5.0,92,0.00,,---,0.51,VWS V13.01,2013-03-30 04:22:00,
2013-03-29 23:27:00,56.8,54.5,30.16,East,99,4.0,6.0,92,0.00,,---,0.51,VWS V13.01,2013-03-30 04:27:00,
2013-03-29 23:32:00,56.7,54.4,30.16,ESE,117,5.0,7.0,92,0.00,,---,0.51,VWS V13.01,2013-03-30 04:32:00,
2013-03-29 23:38:00,56.7,54.4,30.16,East,101,0.0,0.0,92,0.00,,---,0.51,VWS V13.01,2013-03-30 04:38:00,
2013-03-29 23:43:00,56.7,54.4,30.16,East,101,0.0,0.0,92,0.00,,---,0.51,VWS V13.01,2013-03-30 04:43:00,
2013-03-29 23:48:00,56.7,54.4,30.16,ESE,102,3.0,7.0,92,0.00,,---,0.51,VWS V13.01,2013-03-30 04:48:00,
2013-03-29 23:53:00,56.6,54.3,30.16,ESE,104,4.0,9.0,92,0.00,,---,0.51,VWS V13.01,2013-03-30 04:53:00,
2013-03-29 23:58:00,56.6,54.3,30.16,East,94,3.0,9.0,92,0.00,,---,0.51,VWS V13.01,2013-03-30 04:58:00,